Regional Weather Roundup
Issued by NWS

Home | Current Version | Previous Version | Graphics & Text | Print | Product List | Glossary On
Versions: 1 2 3 4 5 6 7 8 9 10 11 12 13 14 15 16 17 18 19 20 21 22 23 24 25 26 27 28 29 30 31 32 33 34 35 36 37 38 39 40 41 42 43 44 45 46 47 48 49 50
000
ASUS45 KCYS 080410
RWRWY

WYOMING REGIONAL WEATHER ROUNDUP
NATIONAL WEATHER SERVICE CHEYENNE WY
900 PM MST SUN FEB 07 2016

NOTE:  "FAIR" INDICATES FEW OR NO CLOUDS BELOW 12,000 FEET
WITH NO SIGNIFICANT WEATHER AND/OR OBSTRUCTIONS TO VISIBILITY.

WYZ001-080500-
YELLOWSTONE NATIONAL PARK

CITY           SKY/WX    TMP DP  RH WIND       PRES   REMARKS
LK YELLOWSTONE   N/A     21  13  71 VRB3      30.54R
W YELLOWSTONE  NOT AVBL

$$
WYZ002>013-054>058-071-098>099-080500-
NORTHERN WYOMING

CITY           SKY/WX    TMP DP  RH WIND       PRES   REMARKS
JACKSON        FAIR      23  12  63 N3        30.53F
CODY           CLOUDY    30  12  47 CALM      30.42R
GREYBULL       CLOUDY    31  16  54 SE6       30.44S WCI  25
WORLAND        CLOUDY    27  17  66 S6        30.44S WCI  20
SHERIDAN       CLOUDY    30  15  53 W9        30.44R WCI  22
BUFFALO        CLOUDY    26  12  55 N6        30.39F WCI  19
GILLETTE       FAIR      26  10  50 NW18      30.38S WCI  13
HULETT         FAIR      30  12  47 NW10G18   30.36S WCI  21
NEWCASTLE      FAIR      25  10  54 NW10      30.35S WCI  15

$$
WYZ014>020-022>026-101>103-080500-
CENTRAL WYOMING

CITY           SKY/WX    TMP DP  RH WIND       PRES   REMARKS
BIG PINEY      FAIR      28  16  60 N18       30.47S WCI  15
PINEDALE       FAIR      28  12  50 W16       30.46S WCI  17
DUBOIS         FAIR      32   9  37 W26G38    30.43R WCI  18
LANDER         FAIR      22  12  65 CALM      30.41S
RIVERTON       FAIR      21  10  62 E5        30.43S WCI  15
CASPER         FAIR      17   8  67 SW12      30.41S WCI   4
DOUGLAS        FAIR      19  11  70 NW13        N/A  WCI   6

$$
WYZ021-027>030-104>119-080500-
SOUTHERN WYOMING

CITY           SKY/WX    TMP DP  RH WIND       PRES   REMARKS
EVANSTON       FAIR      25  13  60 W13       30.58R WCI  14
FORT BRIDGER   CLEAR     28  18  64 W21       30.57S WCI  15
ROCK SPRINGS   FAIR      28  18  66 W30       30.48S WCI  12
DIXON          FAIR      11   6  82 SE5       30.52S WCI   2
RAWLINS        FAIR      23  16  74 W13       30.41R WCI  11
SARATOGA       FAIR      27  19  74 W16       30.43R WCI  14
LARAMIE          N/A     15  10  80 N10       30.33R WCI   2
CHEYENNE       FAIR      20  12  71 N13       30.32S WCI   7
TORRINGTON     FAIR      29  11  47 NW16      30.37R WCI  17
PINE BLUFFS    CLOUDY    25  14  63 NW12      30.37R WCI  14

$$



USA.gov is the U.S. government's official web portal to all federal, state and local government web resources and services.